Flag for Morocco Weather past 2 weeks in Rabat, Morocco

Now
68 °F

Broken clouds.


Feels Like: 68 °F
Forecast: 61 / 75 °F
Wind: 9 mph from Southwest

Location: Rabat-Sale

Current Time: May 29, 2015 at 9:50:54 AM

Latest Report: May 29, 2015 at 9:30 AM


Visibility: 3 mi

Pressure: 29.98 "Hg

Humidity: 78%

Dew point: 61 °F

Location of RabatLocation

Historic Weather in Rabat — Graph

°F

Rabat temperature yesterday

Maximum temperature yesterday: 84 °F (at 3:30 AM)
Minimum temperature yesterday: 68 °F (at 6:00 AM)
Average temperature yesterday: 73 °F

Past Weeks' High & Low Weather Summary

 TemperatureHumidityPressure
High86 °F (May 27, 12:00 PM)100% (May 16, 7:00 AM)30.18 "Hg (May 16, 7:00 AM)
Low50 °F (May 16, 5:30 AM)21% (May 26, 1:00 PM)29.80 "Hg (May 28, 1:30 AM)
Average68 °F71%29.96 "Hg
* Reported May 14 8:00 AM — May 29 8:30 AM, Rabat, Weather by CustomWeather, © 2015

Note: Actual official high and low records may vary slightly from our data, if they occured in-between our weather recording intervals... More about our weather records

Advertising

Rabat weather history for previous 24 hours

 ConditionsComfort  
Time TempWeatherWind HumidityBarometerVisibility
8:30 AM
Fri, May 29
66 °FBroken clouds.8 mph83%29.98 "Hg3 mi
8:00 AM64 °FBroken clouds.7 mph88%29.95 "Hg3 mi
7:30 AM64 °FBroken clouds.3 mph88%29.95 "Hg3 mi
7:00 AM64 °FBroken clouds.5 mph88%29.95 "Hg3 mi
6:30 AM64 °FBroken clouds.5 mph88%29.92 "Hg3 mi
6:00 AM64 °FThunderstorms. Partly cloudy.9 mph88%29.92 "Hg3 mi
5:30 AM64 °FThunderstorms. Partly cloudy.8 mph88%29.92 "Hg3 mi
5:00 AM64 °FThunderstorms. Partly cloudy.9 mph88%29.89 "Hg3 mi
4:30 AM66 °FThunderstorms. Partly cloudy.7 mph83%29.89 "Hg3 mi
4:00 AM64 °FThunderstorms. Partly cloudy.7 mph88%29.89 "Hg3 mi
3:30 AM66 °FThunderstorms. Partly cloudy.8 mph83%29.89 "Hg3 mi
3:00 AM64 °FThunderstorms. Partly cloudy.6 mph88%29.89 "Hg3 mi
2:30 AM64 °FPartly cloudy.6 mph94%29.89 "Hg3 mi
2:00 AM66 °FThunderstorms. Partly cloudy.5 mph88%29.89 "Hg3 mi
1:30 AM66 °FThunderstorms. Partly cloudy.5 mph83%29.92 "Hg3 mi
1:00 AM66 °FThunderstorms. Partly cloudy.9 mph83%29.89 "Hg3 mi
12:30 AM68 °FPartly cloudy.10 mph83%29.92 "Hg3 mi
11:00 PM
Thu, May 28
68 °FThunderstorms. Partly cloudy.15 mph83%29.89 "Hg3 mi
10:30 PM68 °FThunderstorms. Partly cloudy.13 mph83%29.89 "Hg3 mi
10:00 PM70 °FThunderstorms. Partly cloudy.14 mph78%29.89 "Hg4 mi
9:30 PM68 °FPartly cloudy.16 mph83%29.86 "Hg4 mi
9:00 PM70 °FPartly cloudy.13 mph78%29.86 "Hg4 mi
8:30 PM70 °FPassing clouds.13 mph73%29.86 "Hg5 mi
8:00 PM70 °FBroken clouds.12 mph73%29.86 "Hg5 mi
7:30 PM70 °FBroken clouds.12 mph73%29.86 "Hg5 mi
7:00 PM70 °FBroken clouds.12 mph78%29.86 "Hg5 mi
6:30 PM72 °FBroken clouds.9 mph73%29.86 "Hg5 mi
6:00 PM72 °FBroken clouds.13 mph73%29.86 "Hg5 mi
5:30 PM72 °FBroken clouds.10 mph78%29.86 "Hg5 mi
5:00 PM72 °FBroken clouds.14 mph73%29.86 "Hg5 mi
4:30 PM73 °FBroken clouds.14 mph69%29.86 "Hg5 mi
4:00 PM73 °FBroken clouds.14 mph69%29.86 "Hg5 mi
3:30 PM75 °FScattered clouds.15 mph65%29.86 "Hg5 mi
3:00 PM75 °FScattered clouds.13 mph65%29.86 "Hg5 mi
2:30 PM75 °FClear.14 mph65%29.86 "Hg5 mi
2:00 PM75 °FClear.14 mph65%29.89 "Hg5 mi
1:30 PM77 °FClear.13 mph61%29.89 "Hg5 mi
1:00 PM77 °FClear.14 mph57%29.89 "Hg5 mi
12:30 PM77 °FClear.13 mph61%29.89 "Hg5 mi
12:00 PM75 °FClear.13 mph65%29.89 "Hg4 mi
11:30 AM75 °FClear.12 mph65%29.89 "Hg4 mi
11:00 AM73 °FClear.13 mph69%29.89 "Hg4 mi
10:30 AM73 °FClear.13 mph69%29.89 "Hg4 mi
10:00 AM73 °FClear.10 mph69%29.89 "Hg5 mi
9:30 AM73 °FClear.12 mph65%29.89 "Hg5 mi
9:00 AM75 °FClear.8 mph61%29.86 "Hg5 mi
Weather by CustomWeather, © 2015

See weather overviewHow to use our weather pages